weather.gov     
National Weather Service

Terminal Aerodrome Forecast
NWS Homepage
This page is being discontinued on March 12, 2014.
The same data is available at this site. Please update your bookmarks.
Thank you, and we apologize for the inconvenience.
Please send an email to SR-SRH.Webmaster@noaa.gov with any concerns.


Current Version
Previous Version:    01  02  03  04  05  06  07  08  09  10  11  12  13  14  15  16  17  18  19  20  21  22  23  24  25  26  27  28  29  30  
   31  32  33  
[Printable]
569
FTUS43 KGLD 281100 AAA
TAFGLD
TAF AMD
KGLD 281135Z 2812/2912 15006KT P6SM VCSH SCT100 SCT250
     FM281600 16013G18KT P6SM SCT060 SCT140 SCT300
     FM281900 16017G26KT P6SM BKN060
     FM290000 16012KT P6SM BKN070
     FM290100 16010KT P6SM BKN070=


U.S. Dept. of Commerce
NOAA National Weather Service
1325 East West Highway
Silver Spring, MD 20910
E-mail: w-nws.webmaster@noaa.gov
Page last modified: May 16, 2007
NATIONAL WEATHER SERVICE: for Safety, for Work, for Fun - FOR LIFE